Location: Chillicothe
(39.7950°N, 93.5520°W)
Time: 06:07:38
(UTC-06:00)

Altair - Pass Details

Date: 26 October 2019
Orbit: 1502 x 1682 km, 47.2° (Epoch: 21 November)

Event Time Altitude Azimuth Distance (km) Brightness Sun altitude
Rises 19:06:42 0° 290° (WNW) 4,878 11.3 -9.6°
Reaches altitude 10° 19:11:18 10° 272° (W) 3,912 11.2 -10.5°
Maximum altitude 19:17:02 17° 236° (WSW) 3,393 10.3 -11.6°
Drops below altitude 10° 19:22:49 10° 201° (SSW) 3,933 10.0 -12.7°
Sets 19:27:32 0° 182° (S) 4,916 10.3 -13.6°
